{"data":{"norad_id":53707,"epoch":"2026-05-24T23:52:24.685824Z","epoch_age_seconds":82294,"freshness":"FRESH","line1":"1 53707U 22107H   26144.99473016  .00000139  00000+0  26791-4 0  9991","line2":"2 53707  53.2161 246.5870 0001212  88.3068 271.8063 15.08837918206581","mean_motion":15.08837918,"eccentricity":0.0001212,"inclination_deg":53.2161,"raan_deg":246.587,"arg_perigee_deg":88.3068,"mean_anomaly_deg":271.8063,"bstar":2.6791e-5,"rev_number":20658,"period_min":95.437686369173,"perigee_km":538.91130493806,"apogee_km":540.58820068694,"semimajor_km":6917.8867528125,"source":"CELESTRAK","updated_at":"2026-05-25T13:38:17.532943Z"}}